This demonstration page uses our WeatherBlox Daily Observations layout. Learn more.

Left ArrowRight Arrow

41.86663, -103.66717

Hourly Observations for July 2, 2021

Temp ( °F °C ) Dew Point ( °F °C ) Humidity (%) Winds ( mph kmh ) Pressure ( in mb ) Visibility ( mi km ) Precip ( " mm )
12:53 am 00:53 Clear 65 18.3 59 15 81 81 ESE 8 13 30.03 1017 10 16 0.00 0.00
1:53 am 01:53 Clear 64 17.8 58 14.4 81 81 ESE 12 19 30.02 1017 10 16 0.00 0.00
2:53 am 02:53 Clear 62 16.7 57 13.9 84 84 E 8 13 30.02 1017 10 16 0.00 0.00
3:53 am 03:53 Clear 62 16.7 56 13.3 80 80 E 9 15 30.02 1017 10 16 0.00 0.00
4:53 am 04:53 Clear 61 16.1 57 13.9 87 87 E 7 11 30.02 1017 10 16 0.00 0.00
5:53 am 05:53 Partly Cloudy 61 16.1 57 13.9 87 87 ESE 7 11 30.04 1017 8 13 0.00 0.00
6:53 am 06:53 Sunny 64 17.8 59 15 84 84 ESE 9 15 30.06 1018 9 14 0.00 0.00
7:12 am 07:12 Mostly Cloudy 66 18.9 60 15.6 81 81 ESE 8 13 30.00 1016 10 16 0.00 0.00
7:53 am 07:53 Partly Cloudy 68 20 60 15.6 76 76 SE 8 13 30.06 1018 10 16 0.00 0.00
8:53 am 08:53 Sunny 74 23.3 62 16.7 67 67 SE 8 13 30.03 1017 10 16 0.00 0.00
9:53 am 09:53 Sunny 79 26.1 60 15.6 52 52 SSE 15 24 29.99 1016 10 16 0.00 0.00
10:53 am 10:53 Mostly Sunny 83 28.3 60 15.6 46 46 S 15 24 29.98 1015 10 16 0.00 0.00
11:53 am 11:53 Mostly Sunny 85 29.4 59 15 42 42 S 18 30 29.96 1015 10 16 0.00 0.00
12:53 pm 12:53 Sunny 87 30.6 59 15 39 39 SSE 15 24 29.95 1014 10 16 0.00 0.00
1:53 pm 13:53 Sunny 89 31.7 58 14.4 35 35 S 14 22 29.92 1013 10 16 0.00 0.00
2:53 pm 14:53 Mostly Sunny 90 32.2 57 13.9 33 33 SSE 17 28 29.91 1013 10 16 0.00 0.00
3:53 pm 15:53 Sunny 90 32.2 58 14.4 34 34 SSE 16 26 29.89 1012 10 16 0.00 0.00
4:53 pm 16:53 Sunny 89 31.7 57 13.9 34 34 SSE 17 28 29.88 1012 10 16 0.00 0.00
5:53 pm 17:53 Sunny 86 30 57 13.9 37 37 SSE 15 24 29.89 1012 10 16 0.00 0.00
6:53 pm 18:53 Sunny 85 29.4 58 14.4 40 40 S 15 24 29.88 1012 10 16 0.00 0.00
7:53 pm 19:53 Sunny 82 27.8 57 13.9 42 42 SSE 13 20 29.90 1012 10 16 0.00 0.00
8:53 pm 20:53 Clear 77 25 57 13.9 50 50 ESE 8 13 29.90 1013 10 16 0.00 0.00
9:53 pm 21:53 Clear 74 23.3 57 13.9 56 56 ESE 9 15 29.91 1013 10 16 0.00 0.00
10:53 pm 22:53 Clear 71 21.7 57 13.9 61 61 ESE 8 13 29.91 1013 10 16 0.00 0.00
11:53 pm 23:53 Clear 70 21.1 58 14.4 66 66 ESE 10 17 29.90 1013 10 16 0.00 0.00

Powered by AerisWeather